Weather History for KPAM - May, 2013

Change the Weather History Date:

Friday, May 17, 2013

  Actual Average Record
Temperature  
Mean Temperature 70 °F -  
Max Temperature 79 °F 81 °F 87 °F (1998)
Min Temperature 60 °F 65 °F 53 °F (2011)
Cooling Degree Days 4    
Growing Degree Days 20 (Base 50)    
Moisture  
Dew Point 65 °F    
Average Humidity 96    
Maximum Humidity 100    
Minimum Humidity 71    
Precipitation  
Precipitation 0.00 in - - ()
Sea Level Pressure  
Sea Level Pressure 30.05 in    
Wind  
Wind Speed 3 mph (SE)    
Max Wind Speed 12 mph    
Max Gust Speed -    
Visibility 5 miles    
Events Fog    
Averages and records for this station are not official NWS values.
T = Trace of Precipitation, MM = Missing Value Source: NWS Daily Summary

Daily Weather History Graph

Daily Weather History Graph

Search for Another Location

Airport or City:

Trip Planner

Search our weather history database for the weather conditions in past years. The results will help you decide how hot, cold, wet, or windy it might be!

Date:

Astronomy

May. 17, 2013 Rise Set
Actual Time 5:47 AM CDT 7:30 PM CDT
Civil Twilight 5:21 AM CDT 7:56 PM CDT
Nautical Twilight 4:49 AM CDT 8:28 PM CDT
Astronomical Twilight 4:16 AM CDT 9:01 PM CDT
Moon 12:06 PM CDT (5/17) 12:33 AM CDT (5/17)
Length of Visible Light 14h 35m
Length of Day
13h 42m
Waxing Crescent, 45% of the Moon is Illuminated
May 17
Waxing Crescent
May 17
First Quarter
May 24
Full
May 31
Last Quarter
Jun 8
New

Hourly Weather History & Observations

Time (CDT) Temp. Dew Point Humidity Pressure Visibility Wind Dir Wind Speed Gust Speed Precip Events Conditions
12:58 AM 66.6 °F 66.6 °F 100% 30.04 in 10.0 mi West 2.3 mph - N/A   Clear
1:53 AM 62.6 °F 62.6 °F 100% 30.02 in 5.0 mi Calm Calm - N/A   Clear
1:58 AM 63.3 °F 63.3 °F 100% 30.02 in 5.0 mi Calm Calm - N/A   Clear
2:03 AM 62.6 °F 62.6 °F 100% 30.02 in 8.0 mi Calm Calm - N/A   Clear
2:08 AM 62.6 °F 62.6 °F 100% 30.02 in 10.0 mi Calm Calm - N/A   Clear
2:13 AM 62.6 °F 62.6 °F 100% 30.02 in 4.0 mi Calm Calm - N/A   Clear
2:18 AM 62.6 °F 62.6 °F 100% 30.02 in 1.0 mi East 1.2 mph - N/A   Clear
2:23 AM 62.6 °F 62.6 °F 100% 30.02 in 0.8 mi ESE 2.3 mph - N/A   Clear
2:33 AM 62.6 °F 62.6 °F 100% 30.02 in 0.5 mi ESE 2.3 mph - N/A Fog Fog
2:38 AM 60.8 °F 60.8 °F 100% 30.02 in 0.8 mi ESE 2.3 mph - N/A   Clear
2:48 AM 62.6 °F 62.6 °F 100% 30.01 in 0.5 mi SE 3.5 mph - N/A Fog Fog
2:58 AM 60.8 °F 60.8 °F 100% 30.01 in 1.0 mi ESE 2.3 mph - N/A   Clear
3:03 AM 60.8 °F 60.8 °F 100% 30.01 in 4.0 mi ESE 2.3 mph - N/A   Clear
3:08 AM 60.8 °F 60.8 °F 100% 30.01 in 1.5 mi ESE 2.3 mph - N/A   Clear
3:13 AM 60.8 °F 60.8 °F 100% 30.02 in 0.8 mi SE 1.2 mph - N/A   Clear
3:18 AM 60.8 °F 60.8 °F 100% 30.02 in 0.8 mi SE 2.3 mph - N/A   Clear
3:23 AM 62.6 °F 62.6 °F 100% 30.02 in 1.5 mi SE 2.3 mph - N/A   Clear
3:28 AM 62.6 °F 62.6 °F 100% 30.01 in 10.0 mi SE 2.3 mph - N/A   Clear
3:34 AM 60.8 °F 60.8 °F 100% 30.01 in 10.0 mi ESE 4.6 mph - N/A   Partly Cloudy
3:39 AM 60.8 °F 60.8 °F 100% 30.01 in 1.5 mi ESE 4.6 mph - N/A   Partly Cloudy
3:44 AM 60.8 °F 60.8 °F 100% 30.01 in 1.0 mi ESE 3.5 mph - N/A   Clear
3:49 AM 60.8 °F 60.8 °F 100% 30.02 in 2.0 mi ESE 2.3 mph - N/A   Clear
3:54 AM 60.8 °F 60.8 °F 100% 30.02 in 10.0 mi ESE 2.3 mph - N/A   Clear
3:58 AM 61.0 °F 61.0 °F 100% 30.03 in 6.0 mi ESE 2.3 mph - N/A   Clear
4:00 AM 60.8 °F 60.8 °F 100% 30.02 in 1.2 mi NE 1.2 mph - N/A   Partly Cloudy
4:05 AM 60.8 °F 60.8 °F 100% 30.02 in 0.2 mi ENE 1.2 mph - N/A Fog Fog
4:25 AM 60.8 °F 60.8 °F 100% 30.03 in 0.5 mi East 2.3 mph - N/A Fog Fog
4:58 AM 61.9 °F 61.9 °F 100% 30.05 in 0.2 mi Calm Calm - N/A Fog Fog
5:08 AM 62.6 °F 62.6 °F 100% 30.04 in 0.5 mi ESE 3.5 mph - N/A Fog Fog
5:13 AM 62.6 °F 62.6 °F 100% 30.04 in 1.0 mi ESE 3.5 mph - N/A   Mist
5:18 AM 60.8 °F 60.8 °F 100% 30.04 in 1.2 mi ESE 3.5 mph - N/A   Overcast
5:23 AM 60.8 °F 60.8 °F 100% 30.04 in 1.0 mi ESE 4.6 mph - N/A   Mist
5:28 AM 62.6 °F 62.6 °F 100% 30.04 in 2.5 mi ESE 4.6 mph - N/A   Overcast
5:33 AM 62.6 °F 62.6 °F 100% 30.04 in 5.0 mi East 3.5 mph - N/A   Overcast
5:43 AM 66.2 °F 66.2 °F 100% 30.05 in 0.5 mi East 3.5 mph - N/A Fog Fog
5:48 AM 66.2 °F 66.2 °F 100% 30.05 in 0.2 mi East 3.5 mph - N/A Fog Fog
5:53 AM 66.2 °F 66.2 °F 100% 30.05 in 0.2 mi ESE 3.5 mph - N/A Fog Fog
5:58 AM 65.5 °F 65.5 °F 100% 30.07 in 0.2 mi East 2.3 mph - N/A Fog Fog
6:58 AM 66.6 °F 66.6 °F 100% 30.08 in 0.2 mi East 3.5 mph - N/A Fog Fog
7:13 AM 68.0 °F 68.0 °F 100% 30.08 in 0.5 mi East 4.6 mph - N/A Fog Fog
7:18 AM 68.0 °F 68.0 °F 100% 30.08 in 0.5 mi East 5.8 mph - N/A Fog Fog
7:23 AM 68.0 °F 68.0 °F 100% 30.08 in 0.8 mi East 4.6 mph - N/A   Mist
7:28 AM 68.0 °F 68.0 °F 100% 30.08 in 1.2 mi ESE 5.8 mph - N/A   Overcast
7:33 AM 68.0 °F 68.0 °F 100% 30.08 in 4.0 mi ESE 6.9 mph - N/A   Overcast
7:38 AM 69.8 °F 69.8 °F 100% 30.08 in 10.0 mi ESE 5.8 mph - N/A   Overcast
7:53 AM 69.8 °F 69.8 °F 100% 30.09 in 5.0 mi ESE 5.8 mph - N/A   Partly Cloudy
7:58 AM 70.0 °F 69.3 °F 98% 30.10 in 7.0 mi ESE 9.2 mph - N/A   Partly Cloudy
8:04 AM 69.8 °F 69.8 °F 100% 30.09 in 10.0 mi SE 6.9 mph - N/A   Partly Cloudy
8:59 AM 75.2 °F 69.8 °F 83% 30.11 in 10.0 mi South 11.5 mph - N/A   Partly Cloudy
9:58 AM 76.5 °F 69.8 °F 80% 30.11 in 10.0 mi South 11.5 mph - N/A   Partly Cloudy
10:58 AM 78.1 °F 70.0 °F 76% 30.12 in 10.0 mi South 9.2 mph - N/A   Partly Cloudy
11:58 AM 79.2 °F 69.8 °F 73% 30.12 in 10.0 mi SSE 10.4 mph - N/A   Partly Cloudy
12:58 PM 79.3 °F 69.3 °F 71% 30.11 in 10.0 mi South 9.2 mph - N/A   Scattered Clouds
1:58 PM 79.7 °F 69.4 °F 71% 30.10 in 10.0 mi SW 10.4 mph - N/A   Scattered Clouds
2:58 PM 78.4 °F 69.6 °F 74% 30.09 in 10.0 mi SW 9.2 mph - N/A   Scattered Clouds
3:58 PM 79.5 °F 72.0 °F 78% 30.08 in 10.0 mi SSW 10.4 mph - N/A   Partly Cloudy
4:58 PM 78.1 °F 72.3 °F 82% 30.07 in 10.0 mi SSW 9.2 mph - N/A   Clear
5:58 PM 75.9 °F 72.0 °F 87% 30.06 in 10.0 mi SSW 9.2 mph - 0.00 in   Light Drizzle
6:58 PM 73.8 °F 72.0 °F 94% 30.06 in 10.0 mi South 9.2 mph - 0.00 in   Light Drizzle
7:58 PM 71.8 °F 71.8 °F 100% 30.07 in 10.0 mi SSW 5.8 mph - 0.00 in   Light Drizzle
8:58 PM 71.1 °F 71.1 °F 100% 30.08 in 10.0 mi South 5.8 mph - 0.00 in   Clear
9:58 PM 68.4 °F 68.2 °F 99% 30.08 in 10.0 mi South 6.9 mph - N/A   Clear
10:58 PM 70.7 °F 70.7 °F 100% 30.09 in 10.0 mi SSW 4.6 mph - N/A   Clear
11:58 PM 70.2 °F 70.2 °F 100% 30.09 in 10.0 mi SSW 5.8 mph - N/A   Clear